Content
SEND FEEDBACK

Daily
Averages
Monthly
Summary
China

DALIAN, CHINA


Home > Asia > China
Elevation: 318 feet     Latitude: 38 54N     Longitude: 121 38E

WEATHER
 
SELECT A DAY
Number of Records: 222,147;   Date Range: 7/1/96 - 7/30/14
 
SHARE

PRINT THIS DATA

[ ← Previous Day ]
WEATHER ALMANAC - JANUARY 3, 2013
[ Next Day → ]
[ °C ]   °F
Weather ElementAverageHighLow
Temperature14.8 °F17.6 °F (1:30 am)10.4 °F (12:30 am)
Dewpoint1.5 °F5 °F (3:00 am)-7 °F (8:00 am)
Humidity53.9 %73 % (12:30 am)23 % (11:00 am)
Barometer30.72 in30.79 in (11:00 am)30.66 in (11:30 pm)
Wind Speed7 mph13.4 mph (8:00 am)
Wind Gust20.1 mph (1:30 pm)
Weather ElementAverage
Visibility7.3 mi
Wind DirectionSE (136.5 °)

Weather ElementTotal
Precipitation---
Heating Degree Days51 (Base 65)
Averaged from 55 records on January 3, 2013
WEATHER CONDITIONS BREAKOUT
WIND DIRECTION BREAKOUT
WEATHER BY HOUR - JANUARY 3, 2013
[ °C ]   °F
Local TimeTemperatureDewpointHumidityBarometerVisibilityWind DirectionWind SpeedGust SpeedPrecipitationEventsConditions
12:30 AM10.4 °F3.2 °F73 %30.69 in6.2 miVariable2.2 mphScattered Clouds
1:00 AM12.2 °F3.2 °F67 %30.69 in6.2 miNW (320°)4.5 mphScattered Clouds
1:30 AM17.6 °F3.2 °F53 %30.69 in6.2 miNW (320°)8.9 mphScattered Clouds
2:00 AM15.0 °F2.0 °F42 %30.71 in12.0 miNorth2.2 mphClear
2:00 AM17.6 °F3.2 °F53 %30.69 in6.2 miNW (320°)11.2 mphScattered Clouds
2:30 AM17.6 °F3.2 °F53 %30.69 in6.2 miNNW (330°)8.9 mphScattered Clouds
3:00 AM17.6 °F5.0 °F58 %30.69 in6.2 miNorth (350°)8.9 mphScattered Clouds
3:30 AM17.6 °F3.2 °F53 %30.69 in6.2 miNNW (340°)8.9 mphScattered Clouds
4:00 AM17.6 °F3.2 °F53 %30.69 in6.2 miNorth (360°)8.9 mphScattered Clouds
4:30 AM15.8 °F1.4 °F53 %30.71 in6.2 miNNE (20°)11.2 mphScattered Clouds
5:00 AM15.0 °F-5.0 °F25 %30.72 in12.0 miNorth11.2 mphClear
5:00 AM14.0 °F-0.4 °F53 %30.71 in6.2 miNNE (30°)8.9 mphScattered Clouds
5:30 AM12.2 °F-2.2 °F53 %30.71 in6.2 miNNE (30°)6.7 mphScattered Clouds
6:00 AM12.2 °F-2.2 °F53 %30.71 in6.2 miNNE (20°)6.7 mphScattered Clouds
6:30 AM10.4 °F-2.2 °F57 %30.74 in6.2 miNNE (20°)6.7 mphScattered Clouds
7:00 AM10.4 °F-4.0 °F52 %30.74 inNorth (10°)4.5 mphClear
7:30 AM10.4 °F-2.2 °F57 %30.74 inNNE (20°)4.5 mphClear
8:00 AM12.0 °F-7.0 °F25 %30.77 in16.0 miNorth13.4 mphClear
8:00 AM12.2 °F-2.2 °F53 %30.74 inVariable2.2 mphClear
8:30 AM14.0 °F-2.2 °F49 %30.77 inNNE (20°)8.9 mphClear
9:00 AM14.0 °F-2.2 °F49 %30.77 inNE (40°)8.9 mphClear
9:30 AM14.0 °F-2.2 °F49 %30.77 inNorth (10°)11.2 mphClear
10:00 AM15.8 °F-0.4 °F49 %30.77 inNorth (10°)8.9 mphClear
10:30 AM15.8 °F-2.2 °F45 %30.77 inNNE (30°)11.2 mphClear
11:00 AM14.0 °F-7.0 °F23 %30.79 in17.0 miNorth8.9 mphClear
11:00 AM15.8 °F-2.2 °F45 %30.77 inNorth (360°)11.2 mphClear
11:30 AM15.8 °F-0.4 °F49 %30.77 inNorth (350°)8.9 mphClear
12:00 PM15.8 °F1.4 °F53 %30.74 inNNW (340°)8.9 mphClear
12:30 PM17.6 °F1.4 °F49 %30.74 inNorth (360°)6.7 mph17.9 mphClear
1:00 PM17.6 °F1.4 °F49 %30.74 inNNW (330°)8.9 mphClear
1:30 PM17.6 °F3.2 °F53 %30.71 inNNW (330°)8.9 mph20.1 mphClear
2:00 PM16.0 °F-2.0 °F29 %30.73 in17.0 miNorth8.9 mphClear
2:00 PM17.6 °F3.2 °F53 %30.71 inNW (320°)11.2 mphClear
2:30 PM17.6 °F3.2 °F53 %30.71 inNW (320°)11.2 mphClear
3:00 PM17.6 °F5.0 °F58 %30.71 inNNW (340°)8.9 mphClear
3:30 PM17.6 °F3.2 °F53 %30.71 inNNW (340°)8.9 mphClear
4:00 PM17.6 °F3.2 °F53 %30.71 inNorth (360°)8.9 mphClear
4:30 PM15.8 °F3.2 °F58 %30.71 inNorth (10°)8.9 mphClear
5:00 PM15.0 °F2.0 °F41 %30.72 in12.0 miNorth6.7 mphClear
5:00 PM15.8 °F5.0 °F62 %30.71 inNorth (10°)6.7 mphClear
5:30 PM15.8 °F5.0 °F62 %30.71 inNorth (360°)4.5 mphClear
6:00 PM15.8 °F5.0 °F62 %30.71 inNNE (30°)4.5 mphClear
6:30 PM15.8 °F5.0 °F62 %30.71 in4.3 miVariable2.2 mph
7:00 PM14.0 °F5.0 °F67 %30.71 in4.3 miNE (50°)4.5 mph
7:30 PM14.0 °F3.2 °F62 %30.71 in3.7 miNorth (350°)4.5 mph
8:00 PM14.0 °F3.0 °F46 %30.72 in12.0 miNorth6.7 mphClear
8:00 PM14.0 °F5.0 °F67 %30.71 in3.7 miVariable2.2 mph
8:30 PM14.0 °F5.0 °F67 %30.69 in3.7 miNE (40°)4.5 mph
9:00 PM14.0 °F5.0 °F67 %30.69 in5.0 miVariable2.2 mph
9:30 PM14.0 °F3.2 °F62 %30.69 in5.0 miVariable2.2 mph
10:00 PM12.2 °F5.0 °F73 %30.69 in3.7 miNW (310°)4.5 mph
10:30 PM12.2 °F3.2 °F67 %30.69 in3.7 miVariable2.2 mph
11:00 PM15.0 °F5.0 °F51 %30.69 in9.0 miNorth4.5 mphClear
11:00 PM12.2 °F3.2 °F67 %30.69 in3.7 miVariable2.2 mph
11:30 PM10.4 °F3.2 °F73 %30.66 in3.7 miVariable2.2 mph
Hourly data recorded from ZYTL, located miles away from Dalian, China







STORIES FROM OUR PARTNERS